• In Hungary
  • List of Countries
  • For 7 days
  • Water Temperature
  • Satellite Maps
  • Weather Map
  • News
  • Weather Widgets
  • user-avatar
    Login

    Hourly Weather Kudino

    Today, 22 October, Monday

    Time Temperature Precipitation Wind Pressure Humidity
    00:00 +3°C° 0 mm 2 mps 751 mmHg 91%
    01:00 +3°C° 0 mm 2 mps 751 mmHg 91%
    02:00 +2°C° 0 mm 3 mps 751 mmHg 91%
    03:00 +2°C° 0 mm 3 mps 751 mmHg 91%
    04:00 +2°C° 0 mm 3 mps 750 mmHg 91%
    05:00 +2°C° 0 mm 3 mps 750 mmHg 90%
    06:00 +2°C° 0 mm 3 mps 749 mmHg 89%
    07:00 +1°C° 0 mm 4 mps 749 mmHg 87%
    08:00 +3°C° 0 mm 4 mps 749 mmHg 86%
    09:00 +4°C° 0 mm 4 mps 748 mmHg 81%
    10:00 +5°C° 0 mm 5 mps 748 mmHg 76%
    11:00 +6°C° 0 mm 5 mps 747 mmHg 71%
    12:00 +7°C° 0 mm 5 mps 746 mmHg 70%
    13:00 +7°C° 0 mm 5 mps 746 mmHg 69%
    14:00 +8°C° 0 mm 5 mps 745 mmHg 67%
    15:00 +7°C° 0 mm 5 mps 744 mmHg 70%
    16:00 +7°C° 0 mm 5 mps 744 mmHg 73%
    17:00 +6°C° 0 mm 4 mps 743 mmHg 76%
    18:00 +6°C° 0.3 mm 4 mps 743 mmHg 78%
    19:00 +6°C° 0.3 mm 4 mps 742 mmHg 81%
    20:00 +6°C° 0.3 mm 4 mps 742 mmHg 83%
    21:00 +6°C° 0.8 mm 4 mps 741 mmHg 85%
    22:00 +6°C° 0.8 mm 4 mps 741 mmHg 88%
    23:00 +6°C° 0.8 mm 4 mps 740 mmHg 90%

    Tomorrow, 23 October, Tuesday

    Time Temperature Precipitation Wind Pressure Humidity
    00:00 +5°C° 0.3 mm 3 mps 740 mmHg 90%
    01:00 +5°C° 0.3 mm 3 mps 740 mmHg 90%
    02:00 +5°C° 0.3 mm 3 mps 740 mmHg 90%
    03:00 +4°C° 0 mm 3 mps 740 mmHg 92%
    04:00 +3°C° 0 mm 3 mps 740 mmHg 93%
    05:00 +3°C° 0 mm 2 mps 739 mmHg 94%
    06:00 +3°C° 0 mm 2 mps 739 mmHg 94%
    07:00 +3°C° 0 mm 2 mps 739 mmHg 93%
    08:00 +3°C° 0 mm 2 mps 739 mmHg 92%
    09:00 +4°C° 0 mm 2 mps 739 mmHg 86%
    10:00 +5°C° 0 mm 2 mps 738 mmHg 80%
    11:00 +6°C° 0 mm 2 mps 738 mmHg 74%
    12:00 +6°C° 0 mm 2 mps 737 mmHg 72%
    13:00 +7°C° 0 mm 2 mps 736 mmHg 70%
    14:00 +7°C° 0 mm 3 mps 736 mmHg 68%
    15:00 +5°C° 0 mm 3 mps 735 mmHg 72%
    16:00 +5°C° 0 mm 2 mps 734 mmHg 77%
    17:00 +5°C° 0 mm 2 mps 733 mmHg 81%
    18:00 +4°C° 0 mm 3 mps 732 mmHg 81%
    19:00 +3°C° 0 mm 3 mps 732 mmHg 81%
    20:00 +3°C° 0 mm 3 mps 731 mmHg 81%
    21:00 +3°C° 0 mm 3 mps 730 mmHg 83%
    22:00 +1°C° 0 mm 4 mps 729 mmHg 84%
    23:00 +1°C° 0 mm 4 mps 728 mmHg 86%

    Day after tomorrow, 24 October, Wednesday

    Time Temperature Precipitation Wind Pressure Humidity
    00:00 +1°C° 0 mm 4 mps 727 mmHg 86%
    01:00 +1°C° 0 mm 4 mps 726 mmHg 87%
    02:00 +1°C° 0 mm 4 mps 725 mmHg 87%
    03:00 +1°C° 0.1 mm 4 mps 724 mmHg 86%
    04:00 +1°C° 0.1 mm 5 mps 723 mmHg 85%
    05:00 +1°C° 0.1 mm 5 mps 722 mmHg 84%
    06:00 +1°C° 0.2 mm 5 mps 722 mmHg 84%
    07:00 +2°C° 0.2 mm 5 mps 722 mmHg 83%
    08:00 +2°C° 0.2 mm 5 mps 722 mmHg 83%
    09:00 +3°C° 0.2 mm 4 mps 722 mmHg 82%
    10:00 +3°C° 0.2 mm 4 mps 722 mmHg 82%
    11:00 +4°C° 0.2 mm 4 mps 722 mmHg 81%
    12:00 +4°C° 0.3 mm 4 mps 722 mmHg 81%
    13:00 +4°C° 0.3 mm 4 mps 723 mmHg 81%
    14:00 +4°C° 0.3 mm 4 mps 723 mmHg 80%
    15:00 +4°C° 0.3 mm 3 mps 724 mmHg 82%
    16:00 +3°C° 0.3 mm 3 mps 724 mmHg 83%
    17:00 +3°C° 0.3 mm 3 mps 725 mmHg 84%
    18:00 +3°C° 0.2 mm 3 mps 725 mmHg 84%
    19:00 +3°C° 0.2 mm 3 mps 726 mmHg 83%
    20:00 +3°C° 0.2 mm 3 mps 726 mmHg 83%
    21:00 +3°C° 0.1 mm 3 mps 727 mmHg 84%
    22:00 +2°C° 0.1 mm 3 mps 727 mmHg 85%
    23:00 +2°C° 0.1 mm 3 mps 727 mmHg 86%

    25 October, Thursday

    Time Temperature Precipitation Wind Pressure Humidity
    00:00 +2°C° 0 mm 3 mps 728 mmHg 88%
    01:00 +1°C° 0 mm 3 mps 728 mmHg 90%
    02:00 +1°C° 0 mm 3 mps 728 mmHg 92%
    03:00 0°C° 0 mm 3 mps 728 mmHg 93%
    04:00 0°C° 0 mm 3 mps 728 mmHg 94%
    05:00 0°C° 0 mm 3 mps 728 mmHg 94%
    06:00 0°C° 0 mm 3 mps 728 mmHg 94%
    07:00 0°C° 0 mm 3 mps 728 mmHg 93%
    08:00 0°C° 0 mm 3 mps 728 mmHg 92%
    09:00 +1°C° 0 mm 3 mps 728 mmHg 87%
    10:00 +2°C° 0 mm 3 mps 728 mmHg 81%
    11:00 +3°C° 0 mm 3 mps 728 mmHg 76%
    12:00 +3°C° 0 mm 4 mps 727 mmHg 74%
    13:00 +3°C° 0 mm 4 mps 727 mmHg 72%
    14:00 +4°C° 0 mm 4 mps 727 mmHg 70%
    15:00 +3°C° 0 mm 4 mps 727 mmHg 75%
    16:00 +1°C° 0 mm 4 mps 727 mmHg 80%
    17:00 0°C° 0 mm 4 mps 727 mmHg 84%
    18:00 0°C° 0 mm 4 mps 727 mmHg 86%
    19:00 -1°C° 0 mm 4 mps 727 mmHg 87%
    20:00 -1°C° 0 mm 4 mps 727 mmHg 88%
    21:00 0°C° 0 mm 3 mps 727 mmHg 89%
    22:00 0°C° 0 mm 3 mps 727 mmHg 91%
    23:00 -1°C° 0 mm 3 mps 728 mmHg 92%

    26 October, Friday

    Time Temperature Precipitation Wind Pressure Humidity
    00:00 -1°C° 0 mm 3 mps 728 mmHg 92%
    01:00 -1°C° 0 mm 3 mps 728 mmHg 93%
    02:00 -1°C° 0 mm 3 mps 729 mmHg 94%
    03:00 -1°C° 0 mm 3 mps 729 mmHg 93%
    04:00 -1°C° 0 mm 3 mps 729 mmHg 93%
    05:00 0°C° 0 mm 3 mps 730 mmHg 93%
    06:00 -1°C° 0 mm 4 mps 730 mmHg 92%
    07:00 -1°C° 0 mm 4 mps 730 mmHg 91%
    08:00 -1°C° 0 mm 4 mps 730 mmHg 90%
    09:00 0°C° 0.1 mm 4 mps 731 mmHg 88%
    10:00 0°C° 0.1 mm 4 mps 731 mmHg 86%
    11:00 +1°C° 0.1 mm 4 mps 732 mmHg 85%
    12:00 +1°C° 0.1 mm 4 mps 732 mmHg 83%
    13:00 +1°C° 0.1 mm 4 mps 733 mmHg 81%
    14:00 +1°C° 0.1 mm 4 mps 733 mmHg 79%
    15:00 +1°C° 0 mm 4 mps 734 mmHg 78%
    16:00 0°C° 0 mm 4 mps 734 mmHg 77%
    17:00 0°C° 0 mm 4 mps 735 mmHg 77%
    18:00 +1°C° 0 mm 3 mps 735 mmHg 78%
    19:00 +1°C° 0 mm 3 mps 736 mmHg 79%
    20:00 0°C° 0 mm 3 mps 736 mmHg 79%
    21:00 +1°C° 0 mm 2 mps 737 mmHg 82%
    22:00 -1°C° 0 mm 2 mps 737 mmHg 84%
    23:00 -1°C° 0 mm 2 mps 738 mmHg 87%

    27 October, Saturday

    Time Temperature Precipitation Wind Pressure Humidity
    00:00 -1°C° 0 mm 2 mps 738 mmHg 89%
    01:00 -2°C° 0 mm 2 mps 738 mmHg 91%
    02:00 -2°C° 0 mm 2 mps 738 mmHg 93%
    03:00 -1°C° 0 mm 2 mps 738 mmHg 92%
    04:00 -1°C° 0 mm 2 mps 738 mmHg 91%
    05:00 0°C° 0 mm 3 mps 738 mmHg 90%
    06:00 0°C° 0.4 mm 3 mps 737 mmHg 88%
    07:00 0°C° 0.4 mm 4 mps 737 mmHg 87%
    08:00 +1°C° 0.4 mm 5 mps 736 mmHg 85%
    09:00 +1°C° 0.8 mm 5 mps 736 mmHg 85%
    10:00 +2°C° 0.8 mm 5 mps 736 mmHg 85%
    11:00 +2°C° 0.8 mm 5 mps 735 mmHg 85%
    12:00 +3°C° 0.7 mm 5 mps 735 mmHg 86%
    13:00 +3°C° 0.7 mm 5 mps 735 mmHg 87%
    14:00 +4°C° 0.7 mm 4 mps 735 mmHg 88%
    15:00 +4°C° 0.1 mm 4 mps 735 mmHg 89%
    16:00 +4°C° 0.1 mm 4 mps 736 mmHg 90%
    17:00 +5°C° 0.1 mm 4 mps 736 mmHg 91%
    18:00 +5°C° 0 mm 3 mps 736 mmHg 92%
    19:00 +5°C° 0 mm 3 mps 737 mmHg 93%
    20:00 +5°C° 0 mm 3 mps 737 mmHg 94%
    21:00 +5°C° 0 mm 2 mps 737 mmHg 95%
    22:00 +5°C° 0 mm 2 mps 737 mmHg 96%
    23:00 +6°C° 0 mm 1 mps 738 mmHg 97%

    28 October, Sunday

    Time Temperature Precipitation Wind Pressure Humidity
    00:00 +6°C° 0 mm 1 mps 738 mmHg 97%
    01:00 +5°C° 0 mm 1 mps 738 mmHg 97%
    02:00 +5°C° 0 mm 1 mps 738 mmHg 97%
    03:00 +4°C° 0.2 mm 2 mps 738 mmHg 96%
    04:00 +4°C° 0.2 mm 2 mps 737 mmHg 95%
    05:00 +4°C° 0.2 mm 2 mps 737 mmHg 95%
    06:00 +4°C° 1.5 mm 3 mps 737 mmHg 94%
    07:00 +4°C° 1.5 mm 3 mps 736 mmHg 94%
    08:00 +4°C° 1.5 mm 3 mps 736 mmHg 94%
    09:00 +4°C° 2.3 mm 3 mps 735 mmHg 94%
    10:00 +5°C° 2.3 mm 3 mps 735 mmHg 94%
    11:00 +5°C° 2.3 mm 3 mps 734 mmHg 94%
    12:00 +6°C° 1 mm 4 mps 733 mmHg 92%
    13:00 +7°C° 1 mm 4 mps 733 mmHg 91%
    14:00 +8°C° 1 mm 4 mps 732 mmHg 89%
    15:00 +10°C° 0.2 mm 4 mps 732 mmHg 87%
    16:00 +10°C° 0.2 mm 5 mps 732 mmHg 84%
    17:00 +12°C° 0.2 mm 5 mps 732 mmHg 82%
    18:00 +12°C° 0.1 mm 5 mps 732 mmHg 82%
    19:00 +10°C° 0.1 mm 6 mps 732 mmHg 83%
    20:00 +10°C° 0.1 mm 6 mps 732 mmHg 83%
    21:00 +9°C° 0 mm 6 mps 733 mmHg 82%
    22:00 +8°C° 0 mm 6 mps 734 mmHg 80%
    23:00 +6°C° 0 mm 7 mps 735 mmHg 78%
    Show more